Weather History for Chicopee, MA

Change the Weather History Date:

Saturday, February 1, 2014

  Actual Average Record
Temperature  
Mean Temperature 33 °F -  
Max Temperature 45 °F 33 °F 60 °F (2012)
Min Temperature 21 °F 16 °F -4 °F (2005)
Degree Days  
Heating Degree Days 32    
Moisture  
Dew Point 25 °F    
Average Humidity 68    
Maximum Humidity 98    
Minimum Humidity 40    
Precipitation  
Precipitation 0.00 in - - ()
Sea Level Pressure  
Sea Level Pressure 30.20 in    
Wind  
Wind Speed 5 mph (South)    
Max Wind Speed 13 mph    
Max Gust Speed -    
Visibility 10 miles    
Events Rain    
Averages and records for this station are not official NWS values.
T = Trace of Precipitation, MM = Missing Value Source: NWS Daily Summary

Daily Weather History Graph

Daily Weather History Graph

Search for Another Location

Airport:

Trip Planner

Search our weather history database for the weather conditions in past years. The results will help you decide how hot, cold, wet, or windy it might be!

Date:

Astronomy

Feb. 01, 2014 Rise Set
Actual Time 7:03 AM EST 5:04 PM EST
Civil Twilight 6:33 AM EST 5:34 PM EST
Nautical Twilight 6:00 AM EST 6:07 PM EST
Astronomical Twilight 5:27 AM EST 6:40 PM EST
Moon 7:48 AM EST (2/1) 7:40 PM EST (2/1)
Length of Visible Light 11h 00m
Length of Day
10h 01m
Waxing Crescent, 5% of the Moon is Illuminated
Feb 1
Waxing Crescent
Feb 6
First Quarter
Feb 14
Full
Feb 22
Last Quarter
Mar 1
New

Hourly Weather History & Observations

Time (EST) Temp. Windchill Dew Point Humidity Pressure Visibility Wind Dir Wind Speed Gust Speed Precip Events Conditions
12:58 AM 27.1 °F - 20.1 °F 75% 30.24 in 10.0 mi SSW 2.3 mph - N/A   Partly Cloudy
1:58 AM 27.5 °F - 20.7 °F 75% 30.25 in 10.0 mi WSW 2.3 mph - N/A   Mostly Cloudy
2:58 AM 28.2 °F - 21.4 °F 76% 30.27 in 10.0 mi SE 2.3 mph - N/A   Overcast
3:58 AM 27.1 °F - 21.7 °F 80% 30.28 in 10.0 mi SSE 2.3 mph - N/A   Mostly Cloudy
4:58 AM 25.0 °F - 22.5 °F 90% 30.25 in 10.0 mi ENE 2.3 mph - N/A   Scattered Clouds
5:58 AM 24.3 °F 19.9 °F 23.0 °F 95% 30.30 in 10.0 mi ENE 3.5 mph - N/A   Partly Cloudy
6:58 AM 21.2 °F - 20.7 °F 98% 30.33 in 10.0 mi Calm Calm - N/A   Clear
7:58 AM 24.8 °F - 23.7 °F 96% 30.34 in 10.0 mi SSW 2.3 mph - N/A   Clear
8:58 AM 31.1 °F - 23.2 °F 72% 30.32 in 10.0 mi NE 2.3 mph - N/A   Clear
9:58 AM 34.9 °F - 21.9 °F 59% 30.35 in 10.0 mi West 2.3 mph - N/A   Clear
10:58 AM 39.9 °F 36.7 °F 21.6 °F 48% 30.32 in 10.0 mi South 4.6 mph - N/A   Clear
11:58 AM 43.2 °F 38.4 °F 21.6 °F 42% 30.30 in 10.0 mi South 8.1 mph - N/A   Clear
12:58 PM 45.0 °F 38.9 °F 22.1 °F 40% 30.27 in 10.0 mi SSW 12.7 mph - N/A   Partly Cloudy
1:58 PM 45.3 °F 39.7 °F 22.5 °F 40% 30.22 in 10.0 mi South 11.5 mph - N/A   Partly Cloudy
2:58 PM 44.2 °F 38.0 °F 22.1 °F 42% 30.22 in 10.0 mi South 12.7 mph - N/A   Mostly Cloudy
3:58 PM 42.8 °F 36.6 °F 22.1 °F 44% 30.21 in 10.0 mi South 11.5 mph - N/A   Clear
4:23 PM 42.8 °F 37.5 °F 21.2 °F 42% 30.17 in 10.0 mi South 9.2 mph - N/A Rain Light Rain
4:25 PM 42.8 °F 37.5 °F 23.0 °F 46% 30.17 in 10.0 mi South 9.2 mph - N/A   Light Ice Pellets
4:44 PM 41.0 °F 35.2 °F 24.8 °F 53% 30.17 in 10.0 mi South 9.2 mph - N/A   Overcast
4:58 PM 41.2 °F 34.5 °F 23.0 °F 48% 30.20 in 10.0 mi South 11.5 mph - 0.00 in   Overcast
5:58 PM 39.9 °F 33.4 °F 21.2 °F 47% 30.21 in 10.0 mi South 10.4 mph - N/A   Overcast
6:58 PM 38.8 °F 33.2 °F 23.7 °F 55% 30.19 in 10.0 mi South 8.1 mph - N/A   Partly Cloudy
7:58 PM 36.9 °F 31.4 °F 26.2 °F 65% 30.17 in 10.0 mi South 6.9 mph - N/A   Clear
8:58 PM 37.0 °F 31.0 °F 28.9 °F 73% 30.13 in 10.0 mi South 8.1 mph - N/A   Overcast
9:36 PM 37.4 °F 30.8 °F 32.0 °F 81% 30.07 in 10.0 mi South 9.2 mph - N/A   Mostly Cloudy
9:43 PM 37.4 °F 31.4 °F 32.0 °F 81% 30.07 in 10.0 mi South 8.1 mph - N/A   Overcast
9:48 PM 37.4 °F 31.4 °F 32.0 °F 81% 30.07 in 10.0 mi South 8.1 mph - N/A   Overcast
9:58 PM 37.2 °F 31.9 °F 31.1 °F 79% 30.10 in 10.0 mi SSW 6.9 mph - N/A   Overcast
10:30 PM 35.6 °F 29.9 °F 32.0 °F 87% 30.05 in 10.0 mi SSW 6.9 mph - N/A   Scattered Clouds
10:58 PM 35.6 °F 30.7 °F 32.0 °F 87% 30.07 in 10.0 mi SSW 5.8 mph - N/A   Clear
11:27 PM 33.8 °F 29.6 °F 32.0 °F 93% 30.03 in 10.0 mi SW 4.6 mph - N/A   Mostly Cloudy
11:58 PM 34.7 °F - 31.8 °F 89% 30.06 in 10.0 mi SW 2.3 mph - N/A   Overcast